EW9136 Weather Reports


Display with metric or nautical units.
time (UTC)temp
F
wind
direction
speed
MPH
gust
MPH
rain 1hr
in
rain 24hr
in
rain mn
in
humidity
%
barometer
mb
20260506150130 52 44 8.0 15.0 0.00 0.04 0.04 70 1015.5
20260506144531 52 54 8.0 17.0 0.00 0.04 0.04 71 1015.5
20260506143033 50 56 7.0 15.0 0.00 0.04 0.04 70 1015.5
20260506141527 52 52 10.0 16.0 0.00 0.04 0.04 70 1015.5
20260506140027 51 52 7.0 15.0 0.00 0.04 0.04 70 1015.6
20260506134526 52 67 10.0 19.0 0.00 0.04 0.04 68 1015.7
20260506133025 52 50 10.0 18.0 0.00 0.04 0.04 70 1015.6
20260506131532 52 61 13.0 17.0 0.00 0.04 0.04 71 1015.6
20260506130024 50 65 9.0 17.0 0.00 0.04 0.04 71 1015.6
20260506124527 50 63 12.0 18.0 0.00 0.04 0.04 70 1015.6
20260506123026 50 46 12.0 18.0 0.00 0.04 0.04 70 1015.7
20260506121522 49 48 10.0 17.0 0.00 0.04 0.04 71 1015.7
20260506120034 50 32 8.0 16.0 0.00 0.04 0.04 71 1015.7
20260506114524 51 42 10.0 17.0 0.00 0.04 0.04 68 1015.7
20260506113020 50 56 13.0 19.0 0.00 0.04 0.04 67 1015.7
20260506111621 52 46 11.0 19.0 0.00 0.04 0.04 66 1015.8
20260506110021 51 49 13.0 20.0 0.00 0.04 0.04 63 1015.7
20260506104515 51 32 10.0 17.0 0.00 0.04 0.04 68 1015.8
20260506103025 49 52 12.0 20.0 0.00 0.04 0.04 69 1015.7
20260506101512 50 46 14.0 20.0 0.00 0.04 0.04 71 1015.6
20260506100008 47 38 12.0 18.0 0.00 0.04 0.04 76 1015.7
20260506094520 47 56 11.0 18.0 0.00 0.04 0.04 74 1015.7
20260506093041 47 21 9.0 19.0 0.00 0.04 0.04 76 1015.8
20260506091526 47 21 13.0 17.0 0.00 0.04 0.04 77 1015.7
20260506090024 47 20 11.0 17.0 0.00 0.04 0.04 78 1015.7
20260506084522 47 30 11.0 18.0 0.01 0.04 0.04 81 1015.7
20260506083018 46 36 10.0 19.0 0.01 0.04 0.04 83 1015.6
20260506081516 45 23 11.0 19.0 0.02 0.04 0.04 86 1015.6
20260506073012 43 325 6.0 14.0 0.02 0.03 0.03 88 1015.3
20260506071512 44 21 8.0 14.0 0.00 0.02 0.02 86 1015.2
20260506061506 43 22 6.0 14.0 0.00 0.02 0.02 89 1015.0
20260506050113 39 106 1.0 3.0 0.01 0.02 0.02 95 1014.9
20260506044600 39 102 1.0 3.0 0.01 0.02 0.02 95 1014.8
20260506043054 38 101 0.0 3.0 0.01 0.02 0.02 95 1014.9
20260506041556 37 89 1.0 3.0 0.00 0.01 0.01 94 1015.0
20260506040051 37 5 0.0 3.0 0.00 0.01 0.01 94 1015.0
20260506034551 37 23 0.0 2.0 0.00 0.01 0.01 94 1014.9
20260506033052 38 352 0.0 2.0 0.00 0.01 0.01 94 1014.8
20260506031559 39 352 2.0 9.0 0.00 0.01 0.01 94 1014.8
20260506030105 39 360 4.0 8.0 0.00 0.01 0.01 95 1015.0
20260506024545 38 310 1.0 6.0 0.01 0.01 0.01 94 1015.0
20260506023044 38 217 0.0 2.0 0.01 0.01 0.01 94 1014.9
20260506021543 39 217 0.0 2.0 0.01 0.01 0.01 94 1014.9
20260506020040 38 217 0.0 3.0 0.01 0.01 0.01 94 1015.1
20260506014538 37 218 1.0 3.0 0.00 0.00 0.00 94 1015.1
20260506013041 37 218 1.0 3.0 0.00 0.00 0.00 94 1015.1
20260506011534 36 225 2.0 3.0 0.00 0.00 0.00 94 1015.1
20260506010034 36 225 0.0 3.0 0.00 0.00 0.00 93 1015.2
20260506004550 35 225 0.0 3.0 0.00 0.00 0.00 93 1015.3
20260506003029 35 225 2.0 4.0 0.00 0.00 0.00 92 1015.3
20260506001527 36 337 1.0 3.0 0.00 0.00 0.00 92 1015.4
20260506000022 36 337 0.0 1.0 0.00 0.00 0.00 91 1015.3
20260505234539 38 337 0.0 3.0 0.00 0.00 0.00 92 1015.4
20260505233019 38 311 2.0 5.0 0.00 0.00 0.00 92 1015.4
20260505231516 39 321 2.0 5.0 0.00 0.00 0.00 91 1015.5
20260505230015 39 328 1.0 4.0 0.00 0.00 0.00 91 1015.6
20260505224520 39 337 0.0 3.0 0.00 0.00 0.00 90 1015.7
20260505223013 40 337 2.0 4.0 0.00 0.00 0.00 89 1015.6
20260505221513 41 10 3.0 5.0 0.00 0.00 0.00 89 1015.6
20260505220012 42 21 3.0 10.0 0.00 0.00 0.00 89 1015.6
20260505214514 42 10 5.0 11.0 0.00 0.00 0.00 89 1015.6
20260505213013 42 10 5.0 10.0 0.00 0.00 0.00 88 1015.6
20260505211511 43 358 6.0 12.0 0.00 0.00 0.00 88 1015.7
20260505210012 43 360 6.0 14.0 0.00 0.00 0.00 88 1015.7
20260505204522 43 5 5.0 14.0 0.00 0.00 0.00 88 1015.7
20260505203009 43 356 5.0 11.0 0.00 0.00 0.00 88 1015.8
20260505201508 43 26 8.0 13.0 0.00 0.00 0.00 87 1015.7
20260505200017 43 15 8.0 13.0 0.00 0.00 0.00 87 1015.7
20260505194505 44 21 8.0 15.0 0.00 0.00 0.00 86 1015.6
20260505193003 44 33 6.0 15.0 0.00 0.00 0.00 85 1015.5
20260505191503 45 32 8.0 16.0 0.00 0.00 0.00 84 1015.4
20260505190002 46 15 8.0 16.0 0.00 0.00 0.00 83 1015.4
20260505184501 46 23 9.0 15.0 0.00 0.00 0.00 82 1015.3
20260505183101 46 5 10.0 15.0 0.00 0.00 0.00 80 1015.2
20260505181600 47 10 10.0 19.0 0.00 0.00 0.00 82 1015.2
20260505174559 47 15 8.0 15.0 0.00 0.00 0.00 82 1015.2
20260505173059 48 31 8.0 18.0 0.00 0.00 0.00 82 1015.3
20260505171556 48 352 8.0 20.0 0.00 0.00 0.00 82 1015.1
20260505170058 48 25 9.0 17.0 0.00 0.00 0.00 83 1015.0
20260505164620 48 25 6.0 14.0 0.00 0.00 0.00 84 1014.9
20260505163054 48 10 9.0 19.0 0.00 0.00 0.00 84 1014.9
20260505161557 50 21 7.0 16.0 0.00 0.00 0.00 79 1014.8
20260505153050 51 360 8.0 18.0 0.00 0.00 0.00 72 1014.5
20260505151549 51 5 8.0 17.0 0.00 0.00 0.00 77 1014.4